User: anonymous   Login
Location: Auttagershofen
(48.1940°N, 10.0237°E)
Time: 01:24:48
(UTC+00:00)
Language:

Cosmos 2074 Rocket - Orbit

View from above orbital plane
View from above orbital plane
View from above satellite
View from above satellite

Ground track
Ground track

The orbit is defined by the following mean orbital elements,

1 20578U          26070.78728274 +.00000000 +00000-0 +43939-4 0 00007
2 20578  82.9464 151.6816 0013984  61.6901  58.3762 13.76636861    01
Epoch (UTC): 11 March 2026 18:53:41
Eccentricity: 0.0013984
inclination: 82.9464°
perigee height: 966 km
apogee height: 986 km
right ascension of ascending node: 151.6816°
argument of perigee: 61.6901°
revolutions per day: 13.76636861
mean anomaly at epoch: 58.3762°

The dashed part of the orbit path shows where the satellite is in the earth's shadow,  

DLR